Flag for U.S.A. Weather past 2 weeks in Lakeland, Florida, U.S.A.

Now
77 °F

Clear.


Feels Like: 78 °F
Forecast: 75 / 94 °F
Wind: No wind

Location: Lakeland Regional

Current Time: Aug 21, 2014 at 5:27:49 AM

Latest Report: Aug 21, 2014 at 4:55 AM


Visibility: 10 mi

Pressure: 30.08 "Hg

Humidity: 100%

Dew point: 77 °F

Location of LakelandLocation

Historic Weather in Lakeland — Graph

°F

Lakeland temperature yesterday

Maximum temperature yesterday: 93 °F (at 2:53 PM)
Minimum temperature yesterday: 73 °F (at 4:55 AM)
Average temperature yesterday: 81 °F

Past Weeks' High & Low Weather Summary

 TemperatureHumidityPressure
High93 °F (Aug 10, 1:50 PM)100% (Aug 6, 4:15 AM)30.13 "Hg (Aug 6, 4:15 AM)
Low72 °F (Aug 8, 1:55 AM)41% (Aug 20, 2:53 PM)29.96 "Hg (Aug 12, 5:58 PM)
Average79 °F84%30.04 "Hg
* Reported Aug 6 4:15 AM — Aug 21 4:15 AM, Lakeland, Weather by CustomWeather, © 2014

Note: Actual official high and low records may vary slightly from our data, if they occured in-between our weather recording intervals... More about our weather records

Advertising

Lakeland weather history for previous 24 hours

 ConditionsComfort  
Time TempWeatherWind HumidityBarometerVisibility
4:15 AM
Aug 21
77 °FClear.No wind100%30.08 "Hg10 mi
3:55 AM77 °FClear.No wind100%30.09 "Hg10 mi
3:35 AM77 °FClear.No wind94%30.09 "Hg10 mi
3:15 AM79 °FClear.No wind84%30.10 "Hg10 mi
2:55 AM79 °FClear.No wind84%30.10 "Hg10 mi
2:35 AM79 °FClear.No wind84%30.11 "Hg10 mi
2:15 AM79 °FClear.No wind84%30.11 "Hg10 mi
1:55 AM79 °FClear.5 mph84%30.11 "Hg10 mi
1:35 AM79 °FClear.5 mph79%30.12 "Hg10 mi
1:15 AM79 °FClear.No wind79%30.12 "Hg10 mi
12:55 AM79 °FPassing clouds.No wind79%30.12 "Hg10 mi
12:35 AM79 °FPassing clouds.3 mph84%30.12 "Hg10 mi
12:15 AM79 °FPassing clouds.3 mph79%30.12 "Hg10 mi
11:55 PM
Aug 20
79 °FClear.5 mph79%30.12 "Hg10 mi
11:35 PM79 °FClear.3 mph79%30.11 "Hg10 mi
11:15 PM81 °FClear.5 mph74%30.11 "Hg10 mi
10:55 PM81 °FClear.5 mph74%30.11 "Hg10 mi
10:15 PM81 °FClear.6 mph74%30.10 "Hg10 mi
8:58 PM84 °FScattered clouds.5 mph66%30.08 "Hg12 mi
7:50 PM88 °FPartly sunny.8 mph55%30.06 "Hg12 mi
6:51 PM91 °FScattered clouds.9 mph49%30.05 "Hg15 mi
5:56 PM93 °FBroken clouds.8 mph41%30.04 "Hg15 mi
4:51 PM91 °FScattered clouds.6 mph46%30.05 "Hg15 mi
3:53 PM93 °FScattered clouds.8 mph44%30.05 "Hg15 mi
2:53 PM93 °FScattered clouds.8 mph41%30.07 "Hg15 mi
1:52 PM90 °FScattered clouds.8 mph52%30.09 "Hg15 mi
12:55 PM91 °FPartly sunny.No wind52%30.10 "Hg15 mi
11:50 AM90 °FScattered clouds.8 mph55%30.12 "Hg12 mi
10:50 AM88 °FScattered clouds.5 mph62%30.12 "Hg12 mi
9:50 AM84 °FSunny.No wind74%30.11 "Hg12 mi
9:05 AM81 °FSunny.No wind79%30.09 "Hg12 mi
7:55 AM79 °FClear.No wind79%30.07 "Hg10 mi
6:50 AM77 °FClear.No wind83%30.05 "Hg7 mi
5:50 AM73 °FClear.No wind100%30.03 "Hg7 mi
5:35 AM73 °FClear.No wind100%30.02 "Hg10 mi
5:15 AM73 °FClear.No wind100%30.02 "Hg10 mi
Weather by CustomWeather, © 2014

See weather overviewHow to use our weather pages